This is the latest recevied weather packets stored in our database for station/object KQ4KX. If no packets are shown the sender has not sent any weather packets the latest 10 day(s).
| Time | Temp. | Humidity | Pressure | Rain* | Wind** | Luminosity | Snow |
|---|---|---|---|---|---|---|---|
| 1778005623 | 30.56° C | 52% | 1015.7 hPa | 0 mm | - | - | - |
| 1778004964 | 30.56° C | 50% | 1016 hPa | 0 mm | - | - | - |
| 1778004664 | 30.56° C | 51% | 1016.1 hPa | 0 mm | - | - | - |
| 1778004333 | 31.11° C | 53% | 1016 hPa | 0 mm | - | - | - |
| 1778004033 | 31.11° C | 53% | 1016.1 hPa | 0 mm | - | - | - |
| 1778003043 | 30.56° C | 55% | 1016.3 hPa | 0 mm | - | - | - |
| 1778002413 | 30.56° C | 55% | 1016.4 hPa | 0 mm | - | - | - |
| 1778002083 | 30.56° C | 53% | 1016.4 hPa | 0 mm | - | - | - |
| 1778001754 | 30° C | 55% | 1016.4 hPa | 0 mm | - | - | - |
| 1778001454 | 30° C | 54% | 1016.5 hPa | 0 mm | - | - | - |
| 1778001153 | 30° C | 53% | 1016.5 hPa | 0 mm | - | - | - |
| 1778000853 | 30.56° C | 54% | 1016.5 hPa | 0 mm | - | - | - |
| 1778000523 | 30° C | 54% | 1016.5 hPa | 0 mm | - | - | - |
| 1778000223 | 30° C | 56% | 1016.5 hPa | 0 mm | - | - | - |
| 1777999923 | 30° C | 53% | 1016.7 hPa | 0 mm | - | - | - |
| 1777999593 | 30° C | 58% | 1016.7 hPa | 0 mm | - | - | - |
| 1777999295 | 30° C | 57% | 1016.6 hPa | 0 mm | - | - | - |
| 1777998995 | 29.44° C | 57% | 1016.5 hPa | 0 mm | - | - | - |
| 1777998663 | 30° C | 56% | 1016.5 hPa | 0 mm | - | - | - |
| 1777998363 | 30° C | 59% | 1016.7 hPa | 0 mm | - | - | - |
| 1777998034 | 28.89° C | 59% | 1016.6 hPa | 0 mm | - | - | - |
| 1777996773 | 28.89° C | 56% | 1016.6 hPa | 0 mm | - | - | - |
| 1777996473 | 28.89° C | 57% | 1016.7 hPa | 0 mm | - | - | - |
| 1777996143 | 29.44° C | 59% | 1016.7 hPa | 0 mm | - | - | - |
| 1777995843 | 30° C | 58% | 1016.7 hPa | 0 mm | - | - | - |
* Rain latest hour (hover to see other rain measurements)
** Current wind speed in m/s (hover to see current wind gust speed)